Regional Weather Roundup
Issued by NWS

Home | Current Version | Previous Version | Text Only | Print | Product List | Glossary On
Versions: 1 2 3 4 5 6 7 8 9 10 11 12 13 14 15 16 17 18 19 20 21 22 23 24 25 26 27 28 29 30 31 32 33 34 35 36 37 38 39 40 41 42 43 44 45 46 47 48 49 50
000
ASUS44 KFWD 222001
RWRTX
NORTH TEXAS HOURLY WEATHER ROUNDUP
NATIONAL WEATHER SERVICE FORT WORTH TX
300 PM CDT MON MAY 22 2017

NOTE: "FAIR" INDICATES FEW OR NO CLOUDS BELOW 12,000 FEET WITH NO
SIGNIFICANT WEATHER AND/OR OBSTRUCTIONS TO VISIBILITY.

TXZ118-119-222100-
DALLAS/FORT WORTH METROPLEX

CITY           SKY/WX    TMP DP  RH WIND       PRES   REMARKS
DFW AIRPORT    PTSUNNY   78  60  53 E6        29.96F
DALLAS LOVE    PTSUNNY   79  60  52 VRB6      29.97F
FTW MEACHAM    PTSUNNY   79  60  52 E6        29.97F
DAL-EXECUTIVE  PTSUNNY   76  61  59 E8G17     29.97F
FTW-ALLIANCE   PTSUNNY   77  60  55 E5        29.98F
FTW-NAS-JRB    PTSUNNY   79  60  52 VRB3      29.98F
ARLINGTON      PTSUNNY   77  59  53 E12       29.97F
GRAND PRAIRIE  MOSUNNY   77  59  53 NE9       29.99F
ADDISON        PTSUNNY   77  59  53 E7G16     29.98F
MESQUITE       PTSUNNY   77  61  57 E10       29.98F
LANCASTER      PTSUNNY   75  61  60 SE8       29.98F
$$

TXZ091>094-102>105-117-120-121-131>134-222100-
NORTH CENTRAL TEXAS

CITY           SKY/WX    TMP DP  RH WIND       PRES   REMARKS
SHRMAN/DENISON NOT AVBL
GAINESVILLE    CLOUDY    73  58  59 S6        30.01F
BOWIE          CLOUDY    73  60  64 CALM      30.01F
BRIDGEPORT     CLOUDY    74  59  58 E5        30.01F
DECATUR        PTSUNNY   74  59  59 E3        30.00F
DENTON         CLOUDY    77  60  55 VRB5      29.97F
MCKINNEY       CLOUDY    75  61  61 SE10      29.99F
BONHAM         CLOUDY    73  57  56 SE7       29.99F
ROCKWALL       MOSUNNY   75  60  59 SE7G17    29.99F
TERRELL        PTSUNNY   75  60  59 SE12      29.99F
WAXAHACHIE     CLOUDY    75  63  66 E5        29.99F
CLEBURNE       PTSUNNY   77  64  65 SE12      29.99F
GRANBURY       CLOUDY    79  60  52 E5        30.00S
$$

TXZ083>090-098>101-113>116-127>130-139>142-154-155-222100-
WESTERN NORTH TEXAS

CITY           SKY/WX    TMP DP  RH WIND       PRES   REMARKS
WICHITA FALLS  PTSUNNY   73  58  59 E8        30.00F
WF-KICKAPOO    CLOUDY    73  58  60 SE6       30.03F
VERNON         CLOUDY    73  54  51 CALM      30.02S
ABILENE        PTSUNNY   74  62  66 SE8       29.99F
ABILENE-DYESS  MOSUNNY   76  63  63 E5        29.98F
CISCO          CLOUDY    72  61  68 VRB7      30.01F
EASTLAND       CLOUDY    73  61  66 SE9       30.00F
MINERAL WELLS  PTSUNNY   74  59  59 VRB6      29.98F
STEPHENVILLE   CLOUDY    74  60  63 E6        30.03F
COMANCHE       CLOUDY    71  63  77 E8        30.01F
COLEMAN        CLOUDY    73  61  67 SE6       30.00F
$$

TXZ143>147-156>162-174-175-222100-
CENTRAL TEXAS

CITY           SKY/WX    TMP DP  RH WIND       PRES   REMARKS
WACO           CLOUDY    74  64  71 E8        29.98F
WACO-TSTC      PTSUNNY   75  64  69 NE6       29.97F
WACO-MCGREGOR  PTSUNNY   74  65  73 E10       29.98F
HILLSBORO      PTSUNNY   76  64  65 E9        29.98F
CORSICANA      CLOUDY    72  63  73 E7        30.00F
MEXIA          CLOUDY    71  63  77 E5        29.98F
HEARNE         CLOUDY    72  66  83 NE8       29.98F
TEMPLE         CLOUDY    74  65  73 E9        29.98F
KILLEEN        CLOUDY    73  64  74 E10       29.96F
KILLEEN-SKYLRK CLOUDY    71  65  81 E9        29.98F
FORT HOOD      CLOUDY    72  64  74 E9        29.95F
HAMILTON       CLOUDY    71  64  78 SE7       30.02F
LAMPASAS       CLOUDY    73  66  78 E8        29.97F
$$

TXZ095>097-106>112-122>126-135>138-148>153-164>167-222100-
EAST TEXAS

CITY           SKY/WX    TMP DP  RH WIND       PRES   REMARKS
PARIS          SUNNY     77  55  47 SE14      30.00F
GILMER         CLOUDY    65  59  80 E7        30.02F
MINEOLA        CLOUDY    70  61  73 E6        30.01F
TYLER          CLOUDY    67  62  84 E10       30.00F
LONGVIEW       CLOUDY    63  62  97 NE6       30.00F
MARSHALL       CLOUDY    62  60  92 NE3       30.03F
ATHENS         CLOUDY    64  61  88 E6        29.99F
PALESTINE      CLOUDY    66  65  95 N6        30.01F
JACKSONVILLE   LGT RAIN  64  63  99 E6        30.02F
CENTER         RAIN      66  65  95 E8        30.00F
NACOGDOCHES    CLOUDY    64  63  94 E8        29.97S
LUFKIN         LGT RAIN  66  64  93 NE8       29.95F
$$

SUPPLEMENTAL OBSERVATIONS (NWS FORT WORTH AREA)

CITY           SKY/WX    TMP DP  RH WIND       PRES   REMARKS
$$

SUPPLEMENTAL OBSERVATIONS (NWS NORMAN AREA)

CITY           SKY/WX    TMP DP  RH WIND       PRES   REMARKS
GOODLETT         N/A     71  57  60 S9        30.01F
ODELL            N/A     72  59  63 SE7       30.03S
CROWELL          N/A     72  59  64 E7        30.02F
KNOX CITY        N/A     75  57  53 S5        30.01S
SEYMOUR          N/A     74  58  56 E6        30.01S
$$

SUPPLEMENTAL OBSERVATIONS (NWS SAN ANGELO AREA)

CITY           SKY/WX    TMP DP  RH WIND       PRES   REMARKS
WEINERT          N/A     75  60  58 E9        30.00F
THROCKMORTON     N/A     75  61  61 SE5       30.01F
STAMFORD         N/A     76  62  62 SE7       30.00F
CLYDE            N/A     74  63  69 E12       30.01F
$$

SUPPLEMENTAL OBSERVATIONS (NWS SHREVEPORT AREA)

CITY           SKY/WX    TMP DP  RH WIND       PRES   REMARKS
$$

SUPPLEMENTAL OBSERVATIONS ARE A COLLECTION OF AUTOMATED INSTRUMENTS
THAT ARE MAINTAINED BY A VARIETY OF FEDERAL AND STATE AGENCIES.
CERTAIN ELEMENTS...SUCH AS HUMIDITY VALUES AND SUSTAINED WIND
SPEEDS...MAY BE APPROXIMATED.




USA.gov is the U.S. government's official web portal to all federal, state and local government web resources and services.